Location: Knowlton
(51.2333°N, 1.2667°E)
Time: 10:49:45
(UTC+00:00)

Cosmos 2074 Rocket - Pass Details

Date: 18 April 2021
Orbit: 968 x 985 km, 82.9° (Epoch: 16 May)

Event Time Altitude Azimuth Distance (km) Brightness Sun altitude
Rises 23:33:43 0° 351° (N) 3,687 8.3 -27.4°
Reaches altitude 10° 23:36:17 10° 355° (N) 2,738 7.3 -27.5°
Maximum altitude 23:42:31 64° 76° (ENE) 1,086 4.2 -27.5°
Enters shadow 23:43:23 57° 115° (ESE) 1,141 4.1 -27.5°
